World > North America > United States > Illinois

Troy Grove, Illinois Regional Weather

Lat: 41.47N, Lon: 89.08W
Wx Zone: ILZ019Web Search
Troy Grove Weather Warning NWS WEATHER ALERT FOR THE TROY GROVE, IL AREA - Issued: 222 PM CDT Fri May 7 2021 Troy Grove Weather Warning  

Helpful Tip: Abbreviated, 7 Day, 14 Day Forecasts. There is a weather forecast for every taste.

Feedback


°F Click to change Troy Grove hourly weather to Imperial units.Click to change Troy Grove hourly weather to Metric units. °C
Troy Grove Weather Map
UTC Time: 5/8/2021, 00:45
Your Time:

Troy Grove, IL Regional Weather

Expires:202105080100;;759457
ASUS43 KLOT 080009
RWRIL 

ILLINOIS REGIONAL WEATHER ROUNDUP
NATIONAL WEATHER SERVICE CHICAGO/ROMEOVILLE IL
700 PM CDT FRI MAY 07 2021

NOTE: "FAIR" INDICATES FEW OR NO CLOUDS BELOW 12,000 FEET WITH NO
SIGNIFICANT WEATHER AND/OR OBSTRUCTIONS TO VISIBILITY.

* THESE STATIONS ARE NOT UNDER NWS QUALITY CONTROL. THEY ALSO MAY NOT
  REPORT WEATHER SUCH AS PRECIPITATION OR FOG.


ILZ005-006-012>014-019>023-080100-
NORTHEAST ILLINOIS
  
CITY           SKY/WX    TMP DP  RH WIND       PRES   REMARKS
CHICAGO-OHARE  PTCLDY    46  36  68 NE17      30.04R                  
6HR MIN TEMP:  46; 6HR MAX TEMP:  60;                                

CHICAGO-MIDWAY PTCLDY    48  34  58 NE17      30.04R                  
6HR MIN TEMP:  48; 6HR MAX TEMP:  59;                                

AURORA         PTCLDY    52  28  39 N16       30.03R                  
6HR MIN TEMP:  52; 6HR MAX TEMP:  60;                                

JOLIET*        PTCLDY    55  31  39 N10G17    30.03R                  
WAUKEGAN       MOCLDY    44  36  73 NE7       30.05R                  
6HR MIN TEMP:  44; 6HR MAX TEMP:  57;                                

DUPAGE AIRPORT PTCLDY    52  27  38 N14       30.03R                  
6HR MIN TEMP:  52; 6HR MAX TEMP:  60;                                

KANKAKEE*      CLEAR     52  36  53 NE14      30.03R                  
WHEELING       MOCLDY    47  37  68 NE13G20   30.06S                  
6HR MIN TEMP:  47; 6HR MAX TEMP:  60;                                

MORRIS*        CLEAR     55  28  35 N8        30.02R                  
ROMEOVILLE*    PTCLDY    53  29  40 N17       30.02S                  
LANSING*       CLEAR     46  34  62 NE12G18   30.04S                  
NORTHERLY ISL*   N/A     44  36  73 N15         N/A                   
$$


SKY/WX - Weather  TMP - Temperature  DP - Dew Point  RH - Relative Humidity
WIND - Wind Direction/Speed PRES - Barometric Pressure VSB - Visibility
WCI - Wind Chill Index E13G22 Wind - East Wind 13 mph/Gusts of 22 mph